[[{"header":{"parameterUnit":"m.s-1","parameterCategory":1,"la1":30.2991,"la2":30.254,"lo1":-89.0895,"lo2":-89.0444,"dy":0.0017,"dx":0.0017,"nx":28,"ny":28,"refTime":"2026-02-05T03:00:00:Z","depth":0,"parameterNumber":2,"parameterNumberName":"U-component_of_WINDS"},"data":[0,0,0,0,0,0,0,0,0,0,0,0,0,0,0,0,0,0,0,0,0,0,0,0,0,0,0,0,0,0,0,0,0,0,0,0,0,0,0,0,0,0,0,0,0,0,0,0,0,0,0,0,0,0,0,0,0,0,2.5624,2.5624,0,2.566,2.5661,2.5661,2.5632,2.5631,2.5629,2.5628,2.5665,2.5667,2.5669,0,0,0,0,0,0,0,0,0,0,0,0,0,2.5529,2.5531,2.5624,2.5624,2.5625,2.566,2.5661,2.5661,2.5632,2.5631,2.5629,2.5628,2.5664,2.5667,2.5669,0,0,0,0,0,0,0,0,0,0,0,0,0,2.5568,2.5531,2.5624,2.5615,2.5614,2.566,2.5661,2.5662,2.5633,2.5631,2.5629,2.5627,2.5663,2.5666,2.567,2.5727,0,0,2.5679,2.5681,0,0,0,0,0,0,0,0,2.5566,2.5572,2.5615,2.5615,2.5615,2.564,2.5641,2.5683,2.5633,2.5625,2.5628,2.5626,2.5658,2.5661,2.5672,2.5728,2.573,2.568,2.5682,2.5683,2.5684,0,0,0,0,0,0,0,2.5563,2.557,2.5638,2.5616,2.5616,2.5609,2.5612,2.5649,2.5652,2.5626,2.5624,2.5629,2.5657,2.5669,2.5673,2.573,2.568,2.5682,2.5684,2.5686,2.5837,2.5839,0,0,0,0,0,0,2.5562,2.5568,2.5637,2.5639,2.5585,2.5612,2.5616,2.5634,2.5651,2.5652,2.563,2.5627,2.5665,2.5669,2.5674,2.5743,2.5683,2.5686,2.5688,2.5835,2.5837,2.584,0,0,0,0,0,0,2.556,2.5568,2.5636,2.5603,2.5611,2.5616,2.5636,2.5635,2.5647,2.5654,2.5655,2.5642,2.5664,2.567,2.5714,2.5744,2.5687,2.569,2.5832,2.5835,2.5838,2.5881,0,0,0,0,0,0,2.5557,2.5568,2.5589,2.5604,2.5613,2.5675,2.5638,2.5637,2.5653,2.5649,2.5666,2.5666,2.5663,2.571,2.5717,2.5747,2.5693,2.583,2.5834,2.5837,2.5877,2.5885,2.5892,0,0,0,0,0,2.5554,2.5599,2.559,2.5599,2.564,2.5677,2.5682,2.5677,2.5655,2.5677,2.5682,2.5666,2.574,2.5714,2.5723,2.5754,2.5828,2.5833,2.5837,2.5873,2.5883,2.5892,0,0,0,0,0,0,2.5587,2.5601,2.5591,2.5642,2.5659,2.5672,2.5699,2.5688,2.571,2.5705,2.5698,2.5702,2.5749,2.5756,2.5728,2.5811,2.578,2.5787,2.5805,2.5814,2.5822,2.5819,2.5695,0,0,0,0,0,2.56,2.5629,2.5639,2.5684,2.5692,2.5695,2.571,2.5705,2.5722,2.5728,2.5736,2.5753,2.578,2.5797,2.5823,2.5878,2.5882,2.5904,2.5912,2.5918,2.5923,2.5955,2.5965,2.5855,2.5855,2.5855,0,0,2.5627,2.5639,2.5657,2.5691,2.5702,2.5733,2.57,2.5733,2.5756,2.5733,2.5776,2.5783,2.5801,2.5851,2.5874,2.5859,2.5955,2.5924,2.5929,2.5931,2.5961,2.5971,2.598,2.5858,2.5858,2.5857,0,0,2.5693,2.5704,2.5743,2.5756,2.5775,2.5777,2.5786,2.5801,2.5805,2.5848,2.5833,2.5859,2.5906,2.5919,2.5933,2.6006,2.5992,2.6014,2.6054,2.6085,2.6093,2.6101,2.6128,2.6138,2.602,2.602,2.602,0,2.5724,2.5769,2.5764,2.5799,2.5814,2.5797,2.5836,2.5849,2.5875,2.5886,2.5869,2.5928,2.5939,2.5993,2.6011,2.6022,2.6033,2.6012,2.6093,2.61,2.6107,2.6133,2.6143,2.6023,2.6023,2.6022,2.6022,0,2.5808,2.5839,2.5868,2.5895,2.5914,2.5951,2.5952,2.5972,2.5966,2.5969,2.6014,2.6027,2.6055,2.6067,2.6061,2.6121,2.6111,2.6094,2.6062,2.612,2.6144,2.6154,2.6027,2.6026,2.6025,2.6024,0,0,2.5893,2.5918,2.5929,2.5942,2.5963,2.5987,2.6024,2.6052,2.6069,2.6089,2.612,2.616,2.6145,2.616,2.6155,2.6182,2.6241,2.6161,2.6161,2.6176,2.6309,2.6322,2.6334,2.6232,2.6234,2.6235,2.6307,0,2.596,2.6025,2.6022,2.6082,2.6112,2.6096,2.6128,2.6145,2.6149,2.6176,2.6181,2.621,2.6186,2.6196,2.6222,2.6228,2.6267,2.6223,2.6261,2.6262,2.6257,2.6346,2.636,2.6427,2.6317,2.6318,2.6319,0,2.6047,2.607,2.6133,2.6151,2.6164,2.6193,2.6219,2.6244,2.6263,2.6265,2.6283,2.6274,2.6312,2.6281,2.6333,2.6303,2.6319,2.6324,2.6327,2.633,2.6294,2.6352,2.6449,2.6459,2.6334,2.6333,2.6332,0,2.6104,2.6151,2.6195,2.6206,2.6228,2.6249,2.6259,2.6276,2.6294,2.6317,2.6329,2.6356,2.6371,2.6393,2.6392,2.6369,2.6446,2.6414,2.6449,2.6449,2.6465,2.6464,2.6566,2.6475,2.6475,2.6475,2.6475,0,2.6179,2.6218,2.6221,2.6248,2.6293,2.629,2.6334,2.6341,2.6357,2.6386,2.6374,2.6402,2.64,2.6428,2.6428,2.6472,2.6478,2.6481,2.6481,2.6482,2.6482,2.6492,2.6487,2.6478,2.6477,2.6476,2.6476,0,2.6249,2.6253,2.63,2.6318,2.6323,2.6355,2.637,2.6396,2.6401,2.6438,2.6446,2.6453,2.6486,2.6488,2.6525,2.6525,2.6579,2.6573,2.6573,2.6572,2.6607,2.6604,2.6719,2.6734,2.6633,2.6634,2.6635,0,2.6297,2.6327,2.6348,2.6367,2.6379,2.6409,2.6428,2.6426,2.6446,2.6471,2.6495,2.6526,2.6551,2.6604,2.6612,2.6641,2.6636,2.6675,2.664,2.6642,2.6637,2.6636,2.6639,2.6681,2.6682,2.6683,2.6684,0,2.6381,2.6382,2.6409,2.6438,2.646,2.6482,2.6503,2.6519,2.6521,2.6544,2.6577,2.6597,2.6636,2.6667,2.6696,2.6707,2.6696,2.6695,2.6705,2.6706,2.6705,2.6707,2.6591,2.6692,2.6691,2.6691,2.669,2.669,2.6442,2.6469,2.6488,2.6519,2.6535,2.6555,2.6581,2.659,2.6618,2.665,2.6647,2.6685,2.6704,2.6742,2.6755,2.6784,2.6771,2.6785,2.6789,2.6792,2.6796,2.6701,2.679,2.6789,2.6789,2.6789,2.6789,0,2.6526,2.6538,2.6567,2.6597,2.6622,2.6611,2.6634,2.6655,2.6688,2.6708,2.6733,2.6773,2.6804,2.6816,2.6846,2.6868,2.6864,2.6876,2.6874,2.6877,2.6806,2.6795,2.6879,2.6879,2.6879,2.6879,2.6879,2.6879,2.6573,2.6618,2.6621,2.6674,2.6686,2.6723,2.6737,2.6756,2.6772,2.6817,2.6843,2.6851,2.6867,2.69,2.6928,2.6931,2.6943,2.6957,2.6958,2.6891,2.6882,2.6873,2.6863,2.696,2.696,2.7027,2.7027,2.7028]},{"header":{"parameterUnit":"m.s-1","parameterCategory":1,"la1":30.2991,"la2":30.254,"lo1":-89.0895,"lo2":-89.0444,"dy":0.0017,"dx":0.0017,"nx":28,"ny":28,"refTime":"2026-02-05T03:00:00:Z","depth":0,"parameterNumber":3,"parameterNumberName":"V-component_of_WINDS"},"data":[0,0,0,0,0,0,0,0,0,0,0,0,0,0,0,0,0,0,0,0,0,0,0,0,0,0,0,0,0,0,0,0,0,0,0,0,0,0,0,0,0,0,0,0,0,0,0,0,0,0,0,0,0,0,0,0,0,0,-5.8019,-5.802,0,-5.816,-5.8162,-5.8164,-5.8148,-5.8145,-5.8143,-5.8141,-5.8281,-5.8287,-5.8293,0,0,0,0,0,0,0,0,0,0,0,0,0,-5.7731,-5.7736,-5.8018,-5.802,-5.8022,-5.816,-5.8162,-5.8164,-5.8148,-5.8145,-5.8142,-5.814,-5.8279,-5.8286,-5.8293,0,0,0,0,0,0,0,0,0,0,0,0,0,-5.7862,-5.7738,-5.8018,-5.8031,-5.8033,-5.816,-5.8162,-5.8164,-5.8149,-5.8145,-5.8142,-5.8139,-5.8277,-5.8285,-5.8294,-5.8415,0,0,-5.8321,-5.8325,0,0,0,0,0,0,0,0,-5.7855,-5.7873,-5.8027,-5.803,-5.8033,-5.8133,-5.8112,-5.8248,-5.8149,-5.8105,-5.8141,-5.8137,-5.8234,-5.8246,-5.828,-5.8422,-5.8428,-5.8322,-5.8327,-5.8331,-5.8333,0,0,0,0,0,0,0,-5.7846,-5.7867,-5.8074,-5.8029,-5.8033,-5.8028,-5.8043,-5.8138,-5.8186,-5.8108,-5.8107,-5.8125,-5.8235,-5.8272,-5.8283,-5.843,-5.8321,-5.8329,-5.8334,-5.8338,-5.8681,-5.8685,0,0,0,0,0,0,-5.7834,-5.7859,-5.807,-5.8079,-5.7934,-5.8036,-5.8053,-5.8104,-5.8185,-5.8195,-5.8127,-5.8123,-5.8258,-5.8273,-5.8288,-5.8438,-5.8331,-5.8339,-5.8344,-5.8677,-5.8682,-5.8686,0,0,0,0,0,0,-5.7828,-5.7853,-5.8064,-5.7969,-5.7995,-5.8045,-5.8102,-5.8109,-5.8145,-5.82,-5.8208,-5.8156,-5.8256,-5.8276,-5.8385,-5.8442,-5.8343,-5.8351,-5.8673,-5.8679,-5.8684,-5.8736,0,0,0,0,0,0,-5.782,-5.7851,-5.7898,-5.797,-5.8001,-5.816,-5.8106,-5.8114,-5.8161,-5.8157,-5.8229,-5.8238,-5.8255,-5.8372,-5.8394,-5.8452,-5.8357,-5.8668,-5.8675,-5.8682,-5.8729,-5.8743,-5.8754,0,0,0,0,0,-5.781,-5.7905,-5.7901,-5.7926,-5.8061,-5.8163,-5.818,-5.82,-5.8166,-5.8213,-5.8249,-5.8235,-5.8432,-5.8383,-5.8407,-5.847,-5.8664,-5.8673,-5.8682,-5.8724,-5.874,-5.8754,0,0,0,0,0,0,-5.7836,-5.7915,-5.791,-5.8033,-5.8092,-5.816,-5.8221,-5.8216,-5.8285,-5.8278,-5.8298,-5.8314,-5.8425,-5.8458,-5.8402,-5.8593,-5.8543,-5.8557,-5.8567,-5.8583,-5.8596,-5.8586,-5.8365,0,0,0,0,0,-5.7857,-5.7935,-5.7998,-5.81,-5.813,-5.8171,-5.8216,-5.8226,-5.8287,-5.8311,-5.8355,-5.8413,-5.8489,-5.8537,-5.8609,-5.8734,-5.875,-5.8789,-5.8801,-5.8811,-5.8823,-5.8894,-5.8912,-5.8715,-5.8715,-5.8714,0,0,-5.7899,-5.7952,-5.7999,-5.8107,-5.8154,-5.8233,-5.8191,-5.8276,-5.8336,-5.8324,-5.8431,-5.8464,-5.8531,-5.8649,-5.8703,-5.868,-5.8882,-5.8822,-5.883,-5.8837,-5.8905,-5.8923,-5.894,-5.8721,-5.872,-5.8719,0,0,-5.8018,-5.8065,-5.8156,-5.8205,-5.8277,-5.8304,-5.8326,-5.8396,-5.8419,-5.8527,-5.852,-5.859,-5.8719,-5.8768,-5.8809,-5.8949,-5.894,-5.8972,-5.9037,-5.9105,-5.9121,-5.9135,-5.9187,-5.9205,-5.8983,-5.8983,-5.8983,0,-5.8061,-5.8182,-5.8203,-5.8291,-5.8339,-5.8334,-5.8427,-5.8472,-5.8563,-5.8596,-5.857,-5.8733,-5.8777,-5.8908,-5.8943,-5.8976,-5.9002,-5.8964,-5.9117,-5.9132,-5.9145,-5.9194,-5.9213,-5.8987,-5.8986,-5.8986,-5.8986,0,-5.8233,-5.8317,-5.8381,-5.8473,-5.8528,-5.8617,-5.8652,-5.8705,-5.8711,-5.874,-5.8851,-5.8904,-5.8988,-5.902,-5.9025,-5.9152,-5.9136,-5.9113,-5.9064,-5.9167,-5.9214,-5.9233,-5.8992,-5.8991,-5.899,-5.8989,0,0,-5.8371,-5.8475,-5.8499,-5.8542,-5.8622,-5.8687,-5.8776,-5.8861,-5.8907,-5.897,-5.9046,-5.9157,-5.9137,-5.9184,-5.9195,-5.9255,-5.9365,-5.9226,-5.9227,-5.9251,-5.951,-5.9528,-5.9549,-5.9359,-5.9363,-5.9366,-5.9505,0,-5.8499,-5.8659,-5.8682,-5.8824,-5.8902,-5.89,-5.8978,-5.9036,-5.9066,-5.9136,-5.9168,-5.9248,-5.9215,-5.9244,-5.9303,-5.9339,-5.9418,-5.9329,-5.943,-5.9434,-5.9415,-5.9574,-5.9592,-5.9721,-5.9523,-5.9526,-5.9529,0,-5.8669,-5.8741,-5.8891,-5.8963,-5.8997,-5.9067,-5.9148,-5.9215,-5.9281,-5.9298,-5.9353,-5.9357,-5.945,-5.9397,-5.9525,-5.9465,-5.9507,-5.9532,-5.9537,-5.9548,-5.9488,-5.959,-5.9762,-5.9782,-5.9557,-5.9555,-5.9553,0,-5.8758,-5.8891,-5.8999,-5.9035,-5.9121,-5.9171,-5.9209,-5.9272,-5.9322,-5.9392,-5.9425,-5.9503,-5.9547,-5.9607,-5.9633,-5.9592,-5.976,-5.9709,-5.9778,-5.9778,-5.9814,-5.9812,-5.9997,-5.9839,-5.9839,-5.9839,-5.9838,0,-5.8899,-5.8991,-5.904,-5.9106,-5.921,-5.9235,-5.9337,-5.9373,-5.9429,-5.9502,-5.9504,-5.9572,-5.9601,-5.9674,-5.9694,-5.9798,-5.9817,-5.9834,-5.9839,-5.9835,-5.9833,-5.9864,-5.9856,-5.9844,-5.9843,-5.9842,-5.9841,0,-5.9015,-5.9051,-5.9169,-5.9243,-5.9263,-5.9337,-5.9399,-5.9464,-5.9494,-5.9587,-5.961,-5.9657,-5.9743,-5.9775,-5.9878,-5.9892,-6.0013,-6.001,-5.9992,-5.9994,-6.0062,-6.0055,-6.0274,-6.0304,-6.0125,-6.0127,-6.0128,0,-5.9103,-5.9175,-5.9257,-5.9307,-5.9348,-5.9428,-5.9481,-5.9508,-5.9562,-5.9644,-5.9698,-5.9785,-5.9855,-5.9993,-6.0036,-6.0116,-6.0115,-6.0186,-6.0127,-6.0122,-6.0118,-6.0114,-6.0122,-6.0197,-6.0199,-6.02,-6.0202,0,-5.9256,-5.9272,-5.9348,-5.9431,-5.9494,-5.9561,-5.9625,-5.9665,-5.9702,-5.9763,-5.9853,-5.9908,-6.0016,-6.0102,-6.0184,-6.0222,-6.0219,-6.022,-6.0241,-6.0238,-6.0226,-6.0236,-6.0024,-6.0215,-6.0214,-6.0213,-6.0212,-6.0211,-5.9363,-5.9427,-5.9496,-5.9582,-5.9633,-5.9694,-5.9759,-5.9799,-5.9875,-5.9966,-5.9977,-6.0074,-6.0139,-6.025,-6.0293,-6.0368,-6.0349,-6.0378,-6.0385,-6.0393,-6.0399,-6.0213,-6.0383,-6.0382,-6.0382,-6.0382,-6.0382,0,-5.9518,-5.9563,-5.9641,-5.9733,-5.98,-5.9793,-5.9864,-5.9921,-6.0006,-6.0068,-6.0139,-6.0243,-6.0327,-6.0377,-6.0462,-6.0513,-6.0513,-6.0534,-6.0531,-6.054,-6.041,-6.0385,-6.0532,-6.0532,-6.0532,-6.0532,-6.0532,-6.0532,-5.9607,-5.9716,-5.974,-5.9876,-5.992,-6.0016,-6.0058,-6.0114,-6.0164,-6.0281,-6.0352,-6.0385,-6.0443,-6.0532,-6.0609,-6.0621,-6.0653,-6.0676,-6.0687,-6.0565,-6.0549,-6.0534,-6.0511,-6.0682,-6.0682,-6.0811,-6.0812,-6.0813]}]]